[[{"header":{"parameterUnit":"m.s-1","parameterCategory":1,"la1":30.2992,"la2":30.254,"lo1":-89.0895,"lo2":-89.0443,"dy":0.0025,"dx":0.0025,"nx":19,"ny":19,"refTime":"2026-04-02T09:00:00:Z","depth":0,"parameterNumber":2,"parameterNumberName":"U-component_of_WINDS"},"data":[0,0,0,-3.9149,-3.9152,-3.9297,-3.9298,-3.9483,-3.9484,0,0,0,0,0,0,0,0,0,0,0,-3.9107,-3.9108,-3.9149,-3.9153,-3.9297,-3.9298,-3.9482,-3.9484,0,0,0,0,0,0,0,0,0,0,0,-3.9106,-3.9108,-3.9109,-3.9153,-3.9297,-3.9298,-3.9482,-3.9373,0,0,0,0,0,0,0,0,0,0,-3.9232,-3.9194,-3.9107,-3.9109,-3.9154,-3.9297,-3.9298,-3.9367,-3.938,-3.9417,0,-3.9451,0,-3.9471,-3.9497,-3.9497,0,0,0,-3.9152,-3.9183,-3.9222,-3.9109,-3.9155,-3.9296,-3.9232,-3.9374,-3.9388,-3.9433,-3.9454,-3.9461,-3.9474,-3.9498,-3.9499,-3.9719,-3.972,0,0,-3.9144,-3.9133,-3.9213,-3.9231,-3.9209,-3.9227,-3.9236,-3.9382,-3.9404,-3.9455,-3.9465,-3.9477,-3.9499,-3.9501,-3.9718,-3.9719,0,0,0,-3.9121,-3.9127,-3.9162,-3.9223,-3.9249,-3.9231,-3.9242,-3.9398,-3.941,-3.9467,-3.9479,-3.95,-3.9503,-3.9717,-3.9718,-3.9758,0,0,0,-3.9117,-3.9114,-3.9159,-3.9153,-3.9247,-3.9325,-3.9253,-3.94,-3.9417,-3.9478,-3.95,-3.9504,-3.9716,-3.9718,-3.9754,-3.9778,0,0,0,-3.9097,-3.9112,-3.9133,-3.9153,-3.9214,-3.9323,-3.9344,-3.9404,-3.9424,-3.9498,-3.9505,-3.9715,-3.9717,-3.9751,-3.9773,-3.9831,0,0,0,-3.9073,-3.9167,-3.9133,-3.9243,-3.9213,-3.9347,-3.9343,-3.9444,-3.9512,-3.9501,-3.9716,-3.9718,-3.975,-3.977,-3.9828,-3.9877,-3.9897,0,0,-3.9185,-3.918,-3.9245,-3.9219,-3.9356,-3.9326,-3.9469,-3.9542,-3.956,-3.9665,-3.967,-3.9755,-3.9772,-3.983,-4.0016,-4.0032,0,0,0,-3.9276,-3.9323,-3.9362,-3.9426,-3.9484,-3.9536,-3.9588,-3.9615,-3.9705,-3.9612,-3.9794,-3.9804,-3.9839,-3.9863,-3.9876,-3.9906,-3.9729,-3.9729,-3.9729,-3.9417,-3.9434,-3.9543,-3.9578,-3.9641,-3.9694,-3.9746,-3.9791,-3.9791,-3.9834,-3.9864,-3.9975,-4.0003,-4.0013,-4.0044,-3.9894,-3.9894,-3.9894,-3.9894,-3.958,-3.9648,-3.9646,-3.975,-3.9768,-3.9856,-3.9912,-3.9909,-3.9993,-3.9954,-3.9985,-3.9938,-4.003,-4.0057,-3.9897,-3.9897,-3.9896,-3.9896,-3.9896,-3.9673,-3.9708,-3.974,-3.9834,-3.9905,-3.9938,-4.0019,-4.0033,-4.0047,-4.0078,-4.0111,-4.011,-4.011,-4.0093,-4.0094,-4.0094,-4.0095,-4.0095,-4.0095,-3.9755,-3.9789,-3.9856,-3.9926,-3.9969,-4.0027,-4.0082,-4.0125,-4.0176,-4.018,-4.018,-4.0174,-4.0036,-4.0,-4.0101,-4.01,-4.0099,-4.0099,-4.0098,-3.991,-3.9878,-3.998,-4.0023,-4.0106,-4.0175,-4.0193,-4.0279,-4.0316,-4.0355,-4.0344,-4.024,-4.0236,-4.0225,-4.0195,-4.0341,-4.0341,-4.0341,-4.0341,-3.9987,-3.9986,-4.0094,-4.0161,-4.023,-4.0256,-4.037,-4.0415,-4.0455,-4.0479,-4.0461,-4.0423,-4.0412,-4.0414,-4.0399,-4.0371,-4.0559,-4.0559,-4.0559,-4.0083,-4.009,-4.0184,-4.0223,-4.0289,-4.0346,-4.0454,-4.0531,-4.0571,-4.0568,-4.0498,-4.0489,-4.0428,-4.0408,-4.0401,-4.0378,-4.0327,0,0]},{"header":{"parameterUnit":"m.s-1","parameterCategory":1,"la1":30.2992,"la2":30.254,"lo1":-89.0895,"lo2":-89.0443,"dy":0.0025,"dx":0.0025,"nx":19,"ny":19,"refTime":"2026-04-02T09:00:00:Z","depth":0,"parameterNumber":3,"parameterNumberName":"V-component_of_WINDS"},"data":[0,0,0,2.926,2.9263,2.94,2.94,2.9567,2.9569,0,0,0,0,0,0,0,0,0,0,0,2.9216,2.9217,2.926,2.9264,2.94,2.94,2.9567,2.9569,0,0,0,0,0,0,0,0,0,0,0,2.9215,2.9217,2.9218,2.9264,2.94,2.94,2.9567,2.9466,0,0,0,0,0,0,0,0,0,0,2.9335,2.929,2.9216,2.9218,2.9265,2.9399,2.94,2.9462,2.9473,2.9503,0,2.9528,0,2.9551,2.958,2.958,0,0,0,2.9266,2.9281,2.9322,2.9218,2.9266,2.9399,2.9339,2.9468,2.948,2.9517,2.9531,2.9537,2.9554,2.9581,2.9581,2.9747,2.9747,0,0,2.9259,2.9238,2.9313,2.9329,2.9308,2.9335,2.9343,2.9476,2.9489,2.9531,2.9541,2.9557,2.9582,2.9583,2.9746,2.9747,0,0,0,2.9235,2.9232,2.927,2.9322,2.9347,2.9339,2.9348,2.9483,2.9497,2.9543,2.9559,2.9583,2.9585,2.9746,2.9746,2.9758,0,0,0,2.9231,2.9219,2.9267,2.9255,2.9345,2.9417,2.9353,2.9488,2.9504,2.9558,2.9583,2.9586,2.9745,2.9746,2.9757,2.9767,0,0,0,2.9208,2.9216,2.9235,2.9254,2.9312,2.9415,2.9437,2.9492,2.9513,2.958,2.9587,2.9744,2.9746,2.9755,2.9765,2.9806,0,0,0,2.9178,2.9242,2.9234,2.9312,2.931,2.9422,2.9436,2.952,2.9579,2.9583,2.9745,2.9746,2.9755,2.9763,2.9804,2.9837,2.9848,0,0,2.9247,2.9249,2.9297,2.9294,2.9402,2.9403,2.9512,2.9585,2.961,2.97,2.9704,2.9757,2.9765,2.9805,2.992,2.9929,0,0,0,2.9312,2.9345,2.9378,2.9434,2.9493,2.9544,2.9604,2.9631,2.9709,2.9652,2.9784,2.9788,2.9813,2.983,2.9838,2.9861,2.9753,2.9753,2.9753,2.9378,2.9408,2.9489,2.9536,2.959,2.9652,2.9699,2.9747,2.976,2.9791,2.9817,2.9883,2.9902,2.9908,2.9931,2.9837,2.9837,2.9837,2.9837,2.9482,2.9535,2.9554,2.9639,2.967,2.9742,2.9805,2.9812,2.9884,2.9865,2.9888,2.9865,2.9917,2.9939,2.9838,2.9838,2.9838,2.9838,2.9837,2.9529,2.956,2.9594,2.9679,2.9742,2.9787,2.9856,2.9882,2.9907,2.993,2.9962,2.9962,2.9966,2.9944,2.9944,2.9944,2.9944,2.9944,2.9945,2.9565,2.9603,2.9658,2.9727,2.9767,2.9824,2.9888,2.9929,2.998,2.9994,2.9994,3.0005,2.9916,2.9894,2.9948,2.9948,2.9947,2.9947,2.9946,2.966,2.9643,2.9728,2.9769,2.9853,2.9915,2.9948,3.0029,3.0066,3.0099,3.0106,3.0036,3.004,3.0034,3.0016,3.0099,3.0099,3.0099,3.0099,2.97,2.9706,2.9799,2.9863,2.9928,2.9968,3.0064,3.0115,3.0164,3.019,3.0182,3.0159,3.0152,3.0161,3.0152,3.0135,3.0247,3.0247,3.0247,2.9761,2.9774,2.985,2.99,2.9968,3.0027,3.0118,3.0191,3.0244,3.0254,3.021,3.0204,3.0168,3.0155,3.0163,3.0149,3.0118,0,0]}]]